Weather History for KSNT - August, 2013

Change the Weather History Date:

Wednesday, August 14, 2013

  Actual Average Record
Temperature  
Mean Temperature 58 °F 57 °F  
Max Temperature 83 °F 78 °F 92 °F (2003)
Min Temperature 33 °F 35 °F 23 °F (1918)
Degree Days  
Heating Degree Days 7 8  
Month to date heating degree days 99 98  
Since 1 June heating degree days 611 793  
Since 1 July heating degree days 242 339  
Cooling Degree Days 0 0  
Month to date cooling degree days 0 0  
Year to date cooling degree days 19 3  
Since 1 June cooling degree days 19 3  
Growing Degree Days 8 (Base 50)    
Moisture  
Dew Point 27 °F    
Average Humidity 40    
Maximum Humidity 70    
Minimum Humidity 10    
Precipitation  
Precipitation 0.00 in 0.02 in 0.18 in (1923)
Month to date precipitation 0.04 0.28  
Year to date precipitation 6.27 10.89  
Sea Level Pressure  
Sea Level Pressure 30.01 in    
Wind  
Wind Speed 2 mph (NE)    
Max Wind Speed 13 mph    
Max Gust Speed 22 mph    
T = Trace of Precipitation, MM = Missing Value Source: NWS Daily Summary

Daily Weather History Graph

Daily Weather History Graph

Search for Another Location

Airport or City:

Trip Planner

Search our weather history database for the weather conditions in past years. The results will help you decide how hot, cold, wet, or windy it might be!

Date:

Astronomy

Aug. 14, 2013 Rise Set
Actual Time 6:42 AM MDT 8:45 PM MDT
Civil Twilight 6:10 AM MDT 9:16 PM MDT
Nautical Twilight 5:32 AM MDT 9:55 PM MDT
Astronomical Twilight 4:49 AM MDT 10:37 PM MDT
Moon 3:04 PM MDT (8/14) 12:07 AM MDT (8/14)
Length of Visible Light 15h 05m
Length of Day
14h 02m
First Quarter, 53% of the Moon is Illuminated
Aug 14
First Quarter
Aug 20
Full
Aug 28
Last Quarter
Sep 5
New
Sep 12
First Quarter

Hourly Weather History & Observations

Time (MDT) Temp. Windchill Dew Point Humidity Pressure Visibility Wind Dir Wind Speed Gust Speed Precip Events Conditions
12:51 AM 48.0 °F - 28.0 °F 46% 30.07 in - Calm Calm - N/A   Unknown
1:51 AM 44.1 °F - 28.0 °F 53% 30.07 in - Calm Calm - N/A   Unknown
2:51 AM 41.0 °F 39.0 °F 27.0 °F 57% 30.06 in - SE 3.5 mph - N/A   Unknown
3:51 AM 37.9 °F - 27.0 °F 65% 30.06 in - Calm Calm - N/A   Unknown
4:51 AM 36.0 °F - 26.1 °F 67% 30.06 in - Calm Calm - N/A   Unknown
5:51 AM 35.1 °F - 27.0 °F 72% 30.05 in - Calm Calm - N/A   Unknown
6:51 AM 35.1 °F - 27.0 °F 72% 30.07 in - Calm Calm - N/A   Unknown
7:51 AM 37.9 °F - 28.0 °F 68% 30.09 in - Calm Calm - N/A   Unknown
8:51 AM 43.0 °F - 30.0 °F 60% 30.12 in - Calm Calm - N/A   Unknown
9:51 AM 52.0 °F - 30.9 °F 45% 30.09 in - North 3.5 mph - N/A   Unknown
10:51 AM 59.0 °F - 30.9 °F 35% 30.07 in - North 3.5 mph - N/A   Unknown
11:51 AM 68.0 °F - 32.0 °F 26% 30.01 in - Variable 3.5 mph - N/A   Unknown
12:51 PM 75.9 °F - 32.0 °F 20% 29.96 in - North 5.8 mph - N/A   Unknown
1:51 PM 81.0 °F - 27.0 °F 14% 29.93 in - ESE 8.1 mph - N/A   Unknown
2:51 PM 82.0 °F - 23.0 °F 11% 29.92 in - NE 4.6 mph - N/A   Unknown
3:51 PM 82.0 °F - 21.0 °F 10% 29.93 in - Variable 4.6 mph - N/A   Unknown
4:51 PM 81.0 °F - 25.0 °F 13% 29.93 in - West 8.1 mph - N/A   Unknown
5:51 PM 81.0 °F - 25.0 °F 13% 29.93 in - Variable 4.6 mph - N/A   Unknown
6:51 PM 79.0 °F - 25.0 °F 14% 29.94 in - Calm Calm - N/A   Unknown
7:51 PM 71.1 °F - 30.9 °F 23% 29.95 in - Calm Calm - N/A   Unknown
8:51 PM 64.9 °F - 26.1 °F 23% 29.98 in - Calm Calm - N/A   Unknown
9:51 PM 55.9 °F - 27.0 °F 33% 29.99 in - Calm Calm - N/A   Unknown
10:51 PM 54.0 °F - 26.1 °F 34% 29.99 in - Calm Calm - N/A   Unknown
11:51 PM 50.0 °F - 26.1 °F 39% 29.97 in - Calm Calm - N/A   Unknown